Weather in Vyshcha Dubechnia

Ukraine / Kyiv Region     50°44′06″N   30°38′43″E
temp.,
°C
wind,
m/s
gust,
m/s
humid.,
%
clouds,
%
prec.,
mm/h
press.,
hPa
HPBL,
m
7 march, sun
sun723:00−5w45740 0.0 102587
02:00−5wsw510780 0.0 1024231
05:00−4sw614830 0.0 1021365
08:00−3wsw7158042 0.0 1018607
11:00+1wsw101676100 0.0 10151229
14:00+2wsw9157798 0.0 10121331
17:00+2w8147696 0.0 1011985
20:000w7158785 0.0 1010747
8 march, mon
mon823:00−1w7148634 0.0 1010732
02:00−1w6138866 0.0 1009773
05:00−1w6129099 0.0 1008630
08:00−2wnw6108097 0.1 1010887
11:00−1wnw69650 0.0 10111319
14:00+1w585835 0.1 10111617
17:00−1wnw6106799 0.4 10111117
20:00−3nw5127358 0.4 1014578
9 march, tue
tue923:00−4nw49770 0.0 1016470
02:00−4nw488211 0.0 1017390
05:00−5nw378618 0.0 1018343
08:00−5n467953 0.1 1020823
11:00−4nnw356484 0.0 1021982
14:00−2nnw245487 0.0 10221223
17:00−3ne226494 0.0 1023325
20:00−5ese237997 0.0 1024135
10 march, wed
wed1023:00−5se2377100 0.0 1025127
02:00−6se238276 0.0 1025106
05:00−7se348256 0.0 1025139
08:00−6se357677 0.0 1026221
11:00−3se346280 0.0 1026512
14:00−2se335745 0.0 1025816
17:00−3se45690 0.0 1024386
20:00−5se35770 0.0 1026184
11 march, thu
thu1123:00−5sse34760 0.0 1026136
02:00−5sse24790 0.0 102694
05:00−6sse33800 0.0 102676
08:00−5sse35710 0.0 1026204
11:00−1s45520 0.0 1026761
14:000s46455 0.0 10241221
17:000sse475468 0.0 1023384
20:00−2sse6116067 0.0 1023448